Location: *
(50.5492°N, 7.7469°E)
Time: 19:25:53
(UTC+00:00)

Cosmos 1606 Rocket - Pass Details

Date: 21 October 2019
Orbit: 602 x 633 km, 82.5° (Epoch: 12 November)

Event Time Altitude Azimuth Distance (km) Brightness Sun altitude
Rises 17:08:14 0° 194° (SSW) 2,877 7.3 -7.4°
Reaches altitude 10° 17:10:27 10° 196° (SSW) 1,971 6.5 -7.8°
Maximum altitude 17:14:48 72° 281° (W) 648 3.9 -8.5°
Drops below altitude 10° 17:19:10 10° 7° (N) 1,971 6.0 -9.2°
Sets 17:21:24 0° 9° (N) 2,876 6.8 -9.5°
